contact:dominique.lefevre@mio.osupytheas.fr, maurice.libes@osupytheas.fr, didier.mallarino@osupytheas.fr
Project:EMSO http://www.emso-fr.org/EMSO-France
Depth: 2436.0 m
Title:EMSO Ligure Ouest : Data MII capteur CSTAR
DateTime,Latitude,Longitude,Instrument_Serial,Reference_Counts,Signal_Counts,Corrected_Signal_raw_counts,Calculated_Beam_c_inverse_meters,Internal_thermistor_counts
DateTime,Latitude,Longitude,Instrument_Serial,Reference_Counts,Signal_Counts,Corrected_Signal_raw_counts,Calculated_Beam_c_inverse_meters,Internal_thermistor_counts
2019-08-06T00:02:44,42.805,6.029,CST-1368DR,8405,11759,15436,0.046,551
2019-08-06T00:05:45,42.805,6.029,CST-1368DR,8406,11760,15436,0.046,551
2019-08-06T00:08:47,42.805,6.029,CST-1368DR,8405,11760,15437,0.046,551
2019-08-06T00:11:49,42.805,6.029,CST-1368DR,8405,11759,15437,0.046,551
2019-08-06T00:14:51,42.805,6.029,CST-1368DR,8405,11759,15437,0.046,551
2019-08-06T00:17:52,42.805,6.029,CST-1368DR,8405,11760,15438,0.046,551
2019-08-06T00:20:54,42.805,6.029,CST-1368DR,8405,11760,15437,0.046,551
2019-08-06T00:23:56,42.805,6.029,CST-1368DR,8405,11760,15438,0.046,551
2019-08-06T00:26:58,42.805,6.029,CST-1368DR,8405,11757,15434,0.047,551
2019-08-06T00:30:00,42.805,6.029,CST-1368DR,8405,11759,15436,0.046,550
2019-08-06T00:33:01,42.805,6.029,CST-1368DR,8405,11760,15437,0.046,551
2019-08-06T00:36:03,42.805,6.029,CST-1368DR,8405,11759,15436,0.046,551
2019-08-06T00:39:05,42.805,6.029,CST-1368DR,8405,11760,15438,0.046,551
2019-08-06T00:42:07,42.805,6.029,CST-1368DR,8405,11759,15437,0.046,551
2019-08-06T00:45:09,42.805,6.029,CST-1368DR,8405,11759,15437,0.046,551
2019-08-06T00:48:11,42.805,6.029,CST-1368DR,8405,11759,15437,0.046,551
2019-08-06T00:51:13,42.805,6.029,CST-1368DR,8405,11758,15435,0.047,551
2019-08-06T00:54:14,42.805,6.029,CST-1368DR,8405,11758,15436,0.046,551
2019-08-06T00:57:16,42.805,6.029,CST-1368DR,8405,11760,15437,0.046,551
2019-08-06T01:00:18,42.805,6.029,CST-1368DR,8405,11758,15435,0.047,550
2019-08-06T01:03:20,42.805,6.029,CST-1368DR,8405,11759,15437,0.046,551
2019-08-06T01:06:22,42.805,6.029,CST-1368DR,8405,11757,15434,0.047,551
2019-08-06T01:09:23,42.805,6.029,CST-1368DR,8405,11758,15435,0.047,551
2019-08-06T01:12:25,42.805,6.029,CST-1368DR,8405,11759,15437,0.046,551
2019-08-06T01:15:27,42.805,6.029,CST-1368DR,8405,11759,15437,0.046,551
2019-08-06T01:18:29,42.805,6.029,CST-1368DR,8405,11758,15435,0.047,551
2019-08-06T01:21:30,42.805,6.029,CST-1368DR,8405,11757,15434,0.047,551
2019-08-06T01:24:32,42.805,6.029,CST-1368DR,8405,11757,15433,0.047,550
2019-08-06T01:27:35,42.805,6.029,CST-1368DR,8405,11759,15437,0.046,551
2019-08-06T01:30:36,42.805,6.029,CST-1368DR,8405,11759,15436,0.046,551
2019-08-06T01:33:38,42.805,6.029,CST-1368DR,8405,11759,15437,0.046,551
2019-08-06T01:36:40,42.805,6.029,CST-1368DR,8405,11757,15434,0.047,551
2019-08-06T01:39:42,42.805,6.029,CST-1368DR,8405,11758,15436,0.046,551
2019-08-06T01:42:44,42.805,6.029,CST-1368DR,8405,11760,15438,0.046,551
2019-08-06T01:45:45,42.805,6.029,CST-1368DR,8405,11759,15437,0.046,551
2019-08-06T01:48:47,42.805,6.029,CST-1368DR,8405,11759,15436,0.046,551
2019-08-06T01:51:49,42.805,6.029,CST-1368DR,8405,11757,15434,0.047,551
2019-08-06T01:54:51,42.805,6.029,CST-1368DR,8405,11759,15436,0.046,551
2019-08-06T01:57:53,42.805,6.029,CST-1368DR,8404,11759,15438,0.046,551
2019-08-06T02:00:55,42.805,6.029,CST-1368DR,8404,11759,15438,0.046,550
2019-08-06T02:03:56,42.805,6.029,CST-1368DR,8404,11759,15438,0.046,551
2019-08-06T02:06:58,42.805,6.029,CST-1368DR,8404,11759,15438,0.046,550
2019-08-06T02:10:00,42.805,6.029,CST-1368DR,8404,11759,15438,0.046,551
2019-08-06T02:13:02,42.805,6.029,CST-1368DR,8404,11759,15438,0.046,551
2019-08-06T02:16:03,42.805,6.029,CST-1368DR,8404,11760,15439,0.046,551
2019-08-06T02:19:05,42.805,6.029,CST-1368DR,8404,11759,15439,0.046,551
2019-08-06T02:22:07,42.805,6.029,CST-1368DR,8404,11760,15440,0.045,551
2019-08-06T02:25:09,42.805,6.029,CST-1368DR,8404,11759,15438,0.046,551
2019-08-06T02:28:11,42.805,6.029,CST-1368DR,8404,11760,15439,0.046,551
2019-08-06T02:31:12,42.805,6.029,CST-1368DR,8404,11759,15438,0.046,551
2019-08-06T02:34:14,42.805,6.029,CST-1368DR,8404,11759,15438,0.046,551
2019-08-06T02:37:16,42.805,6.029,CST-1368DR,8404,11757,15435,0.047,551
2019-08-06T02:40:18,42.805,6.029,CST-1368DR,8404,11759,15438,0.046,551
2019-08-06T02:43:20,42.805,6.029,CST-1368DR,8404,11759,15438,0.046,551
2019-08-06T02:46:22,42.805,6.029,CST-1368DR,8404,11760,15440,0.045,551
2019-08-06T02:49:24,42.805,6.029,CST-1368DR,8404,11760,15439,0.046,551
2019-08-06T02:52:26,42.805,6.029,CST-1368DR,8404,11759,15438,0.046,551
2019-08-06T02:55:27,42.805,6.029,CST-1368DR,8404,11759,15439,0.046,551
2019-08-06T02:58:29,42.805,6.029,CST-1368DR,8404,11759,15438,0.046,551
2019-08-06T03:01:31,42.805,6.029,CST-1368DR,8404,11759,15439,0.046,551
2019-08-06T03:04:33,42.805,6.029,CST-1368DR,8404,11758,15437,0.046,550
2019-08-06T03:07:35,42.805,6.029,CST-1368DR,8404,11758,15437,0.046,551
2019-08-06T03:10:37,42.805,6.029,CST-1368DR,8404,11757,15435,0.047,551
2019-08-06T03:13:39,42.805,6.029,CST-1368DR,8404,11758,15436,0.046,551
2019-08-06T03:16:41,42.805,6.029,CST-1368DR,8404,11758,15436,0.046,551
2019-08-06T03:19:42,42.805,6.029,CST-1368DR,8404,11759,15438,0.046,551
2019-08-06T03:22:44,42.805,6.029,CST-1368DR,8404,11755,15433,0.047,551
2019-08-06T03:25:46,42.805,6.029,CST-1368DR,8404,11756,15435,0.047,551
2019-08-06T03:28:48,42.805,6.029,CST-1368DR,8404,11758,15437,0.046,551
2019-08-06T03:31:49,42.805,6.029,CST-1368DR,8404,11750,15427,0.049,551
2019-08-06T03:34:51,42.805,6.029,CST-1368DR,8404,11757,15436,0.046,551
2019-08-06T03:37:53,42.805,6.029,CST-1368DR,8404,11757,15436,0.046,551
2019-08-06T03:40:55,42.805,6.029,CST-1368DR,8404,11755,15433,0.047,551
2019-08-06T03:43:57,42.805,6.029,CST-1368DR,8404,11757,15436,0.046,551
2019-08-06T03:46:58,42.805,6.029,CST-1368DR,8404,11757,15435,0.047,551
2019-08-06T03:50:00,42.805,6.029,CST-1368DR,8404,11755,15433,0.047,551
2019-08-06T03:53:02,42.805,6.029,CST-1368DR,8404,11757,15435,0.047,551
2019-08-06T03:56:04,42.805,6.029,CST-1368DR,8404,11757,15435,0.047,551
2019-08-06T03:59:06,42.805,6.029,CST-1368DR,8404,11757,15436,0.046,551
2019-08-06T04:02:07,42.805,6.029,CST-1368DR,8403,11757,15438,0.046,551
2019-08-06T04:05:09,42.805,6.029,CST-1368DR,8403,11757,15437,0.046,551
2019-08-06T04:08:11,42.805,6.029,CST-1368DR,8403,11757,15437,0.046,551
2019-08-06T04:11:13,42.805,6.029,CST-1368DR,8403,11757,15437,0.046,551
2019-08-06T04:14:15,42.805,6.029,CST-1368DR,8403,11755,15435,0.047,551
2019-08-06T04:17:17,42.805,6.029,CST-1368DR,8403,11757,15437,0.046,551
2019-08-06T04:20:19,42.805,6.029,CST-1368DR,8403,11757,15437,0.046,551
2019-08-06T04:23:20,42.805,6.029,CST-1368DR,8403,11756,15436,0.046,551
2019-08-06T04:26:22,42.805,6.029,CST-1368DR,8403,11754,15434,0.047,551
2019-08-06T04:29:24,42.805,6.029,CST-1368DR,8403,11756,15436,0.046,551
2019-08-06T04:32:26,42.805,6.029,CST-1368DR,8403,11754,15433,0.047,551
2019-08-06T04:35:28,42.805,6.029,CST-1368DR,8403,11756,15435,0.047,551
2019-08-06T04:38:29,42.805,6.029,CST-1368DR,8403,11755,15435,0.047,551
2019-08-06T04:41:31,42.805,6.029,CST-1368DR,8403,11757,15437,0.046,551
2019-08-06T04:44:33,42.805,6.029,CST-1368DR,8403,11757,15437,0.046,551
2019-08-06T04:47:35,42.805,6.029,CST-1368DR,8403,11757,15437,0.046,551
2019-08-06T04:50:37,42.805,6.029,CST-1368DR,8403,11755,15434,0.047,551
2019-08-06T04:53:39,42.805,6.029,CST-1368DR,8403,11756,15435,0.047,551
2019-08-06T04:56:40,42.805,6.029,CST-1368DR,8403,11753,15432,0.047,551
2019-08-06T04:59:42,42.805,6.029,CST-1368DR,8403,11756,15435,0.047,551
2019-08-06T05:02:44,42.805,6.029,CST-1368DR,8403,11754,15433,0.047,550
2019-08-06T05:05:46,42.805,6.029,CST-1368DR,8403,11753,15432,0.047,551
2019-08-06T05:08:48,42.805,6.029,CST-1368DR,8403,11756,15436,0.046,551
2019-08-06T05:11:49,42.805,6.029,CST-1368DR,8403,11754,15433,0.047,551
2019-08-06T05:14:51,42.805,6.029,CST-1368DR,8403,11755,15435,0.047,551
2019-08-06T05:17:53,42.805,6.029,CST-1368DR,8403,11752,15431,0.048,551
2019-08-06T05:20:55,42.805,6.029,CST-1368DR,8403,11754,15433,0.047,551
2019-08-06T05:23:57,42.805,6.029,CST-1368DR,8402,11756,15437,0.046,551
2019-08-06T05:26:59,42.805,6.029,CST-1368DR,8402,11730,15403,0.055,551
2019-08-06T05:30:00,42.805,6.029,CST-1368DR,8403,11754,15434,0.047,551
2019-08-06T05:33:02,42.805,6.029,CST-1368DR,8403,11756,15436,0.046,551
2019-08-06T05:36:04,42.805,6.029,CST-1368DR,8403,11755,15435,0.047,551
2019-08-06T05:39:06,42.805,6.029,CST-1368DR,8402,11753,15434,0.047,551
2019-08-06T05:42:08,42.805,6.029,CST-1368DR,8402,11754,15435,0.047,551
2019-08-06T05:45:09,42.805,6.029,CST-1368DR,8402,11752,15432,0.047,551
2019-08-06T05:48:11,42.805,6.029,CST-1368DR,8402,11755,15436,0.046,551
2019-08-06T05:51:13,42.805,6.029,CST-1368DR,8402,11753,15434,0.047,551
2019-08-06T05:54:15,42.805,6.029,CST-1368DR,8402,11755,15437,0.046,551
2019-08-06T05:57:17,42.805,6.029,CST-1368DR,8402,11752,15433,0.047,551
2019-08-06T06:00:18,42.805,6.029,CST-1368DR,8402,11755,15436,0.046,551
2019-08-06T06:03:20,42.805,6.029,CST-1368DR,8402,11754,15435,0.047,551
2019-08-06T06:06:22,42.805,6.029,CST-1368DR,8402,11754,15435,0.047,551
2019-08-06T06:09:24,42.805,6.029,CST-1368DR,8402,11753,15434,0.047,551
2019-08-06T06:12:26,42.805,6.029,CST-1368DR,8402,11755,15436,0.046,551
2019-08-06T06:15:27,42.805,6.029,CST-1368DR,8402,11754,15435,0.047,551
2019-08-06T06:18:29,42.805,6.029,CST-1368DR,8402,11754,15435,0.047,551
2019-08-06T06:21:31,42.805,6.029,CST-1368DR,8402,11755,15437,0.046,551
2019-08-06T06:24:33,42.805,6.029,CST-1368DR,8402,11756,15437,0.046,551
2019-08-06T06:27:35,42.805,6.029,CST-1368DR,8402,11755,15436,0.046,551
2019-08-06T06:30:37,42.805,6.029,CST-1368DR,8402,11754,15435,0.047,551
2019-08-06T06:33:39,42.805,6.029,CST-1368DR,8402,11753,15434,0.047,550
2019-08-06T06:36:41,42.805,6.029,CST-1368DR,8402,11751,15431,0.048,551
2019-08-06T06:39:42,42.805,6.029,CST-1368DR,8402,11753,15434,0.047,551
2019-08-06T06:42:44,42.805,6.029,CST-1368DR,8402,11754,15435,0.047,551
2019-08-06T06:45:46,42.805,6.029,CST-1368DR,8402,11753,15434,0.047,550
2019-08-06T06:48:48,42.805,6.029,CST-1368DR,8402,11754,15435,0.047,551
2019-08-06T06:51:49,42.805,6.029,CST-1368DR,8402,11753,15434,0.047,550
2019-08-06T06:54:51,42.805,6.029,CST-1368DR,8402,11753,15433,0.047,551
2019-08-06T06:57:53,42.805,6.029,CST-1368DR,8402,11754,15436,0.046,551
2019-08-06T07:00:55,42.805,6.029,CST-1368DR,8402,11753,15434,0.047,550
2019-08-06T07:03:56,42.805,6.029,CST-1368DR,8402,11754,15435,0.047,551
2019-08-06T07:06:58,42.805,6.029,CST-1368DR,8402,11754,15436,0.046,551
2019-08-06T07:10:00,42.805,6.029,CST-1368DR,8402,11755,15436,0.046,551
2019-08-06T07:13:02,42.805,6.029,CST-1368DR,8402,11752,15433,0.047,551
2019-08-06T07:16:03,42.805,6.029,CST-1368DR,8402,11754,15436,0.046,551
2019-08-06T07:19:05,42.805,6.029,CST-1368DR,8402,11752,15432,0.047,551
2019-08-06T07:22:07,42.805,6.029,CST-1368DR,8402,11755,15436,0.046,551
2019-08-06T07:25:09,42.805,6.029,CST-1368DR,8402,11754,15435,0.047,551
2019-08-06T07:28:10,42.805,6.029,CST-1368DR,8402,11754,15436,0.046,551
2019-08-06T07:31:12,42.805,6.029,CST-1368DR,8402,11753,15434,0.047,550
2019-08-06T07:34:14,42.805,6.029,CST-1368DR,8402,11755,15436,0.046,551
2019-08-06T07:37:16,42.805,6.029,CST-1368DR,8402,11753,15433,0.047,551
2019-08-06T07:40:18,42.805,6.029,CST-1368DR,8401,11753,15436,0.046,551
2019-08-06T07:43:19,42.805,6.029,CST-1368DR,8402,11756,15437,0.046,551
2019-08-06T07:46:21,42.805,6.029,CST-1368DR,8401,11753,15435,0.047,551
2019-08-06T07:49:23,42.805,6.029,CST-1368DR,8402,11753,15434,0.047,551
2019-08-06T07:52:25,42.805,6.029,CST-1368DR,8401,11754,15437,0.046,551
2019-08-06T07:55:26,42.805,6.029,CST-1368DR,8401,11754,15436,0.046,551
2019-08-06T07:58:28,42.805,6.029,CST-1368DR,8401,11754,15436,0.046,551
2019-08-06T08:01:30,42.805,6.029,CST-1368DR,8401,11753,15435,0.047,551
2019-08-06T08:04:32,42.805,6.029,CST-1368DR,8401,11752,15434,0.047,551
2019-08-06T08:07:33,42.805,6.029,CST-1368DR,8401,11754,15437,0.046,551
2019-08-06T08:10:35,42.805,6.029,CST-1368DR,8401,11748,15429,0.048,551
2019-08-06T08:13:37,42.805,6.029,CST-1368DR,8401,11754,15437,0.046,551
2019-08-06T08:16:39,42.805,6.029,CST-1368DR,8401,11755,15438,0.046,551
2019-08-06T08:19:41,42.805,6.029,CST-1368DR,8401,11755,15438,0.046,551
2019-08-06T08:22:42,42.805,6.029,CST-1368DR,8401,11755,15439,0.046,551
2019-08-06T08:25:44,42.805,6.029,CST-1368DR,8401,11754,15437,0.046,551
2019-08-06T08:28:46,42.805,6.029,CST-1368DR,8401,11754,15436,0.046,551
2019-08-06T08:31:48,42.805,6.029,CST-1368DR,8401,11755,15438,0.046,551
2019-08-06T08:34:49,42.805,6.029,CST-1368DR,8401,11756,15439,0.046,551
2019-08-06T08:37:51,42.805,6.029,CST-1368DR,8401,11755,15438,0.046,551
2019-08-06T08:40:53,42.805,6.029,CST-1368DR,8401,11756,15439,0.046,551
2019-08-06T08:43:55,42.805,6.029,CST-1368DR,8401,11756,15439,0.046,551
2019-08-06T08:46:57,42.805,6.029,CST-1368DR,8401,11755,15439,0.046,551
2019-08-06T08:49:59,42.805,6.029,CST-1368DR,8401,11755,15439,0.046,551
2019-08-06T08:53:00,42.805,6.029,CST-1368DR,8401,11755,15439,0.046,551
2019-08-06T08:56:02,42.805,6.029,CST-1368DR,8401,11753,15435,0.047,551
2019-08-06T08:59:04,42.805,6.029,CST-1368DR,8401,11754,15437,0.046,551
2019-08-06T09:02:06,42.805,6.029,CST-1368DR,8401,11755,15438,0.046,551
2019-08-06T09:05:07,42.805,6.029,CST-1368DR,8401,11754,15437,0.046,551
2019-08-06T09:08:09,42.805,6.029,CST-1368DR,8401,11752,15434,0.047,551
2019-08-06T09:11:11,42.805,6.029,CST-1368DR,8401,11755,15438,0.046,551
2019-08-06T09:14:13,42.805,6.029,CST-1368DR,8401,11754,15437,0.046,551
2019-08-06T09:17:15,42.805,6.029,CST-1368DR,8401,11755,15438,0.046,551
2019-08-06T09:20:16,42.805,6.029,CST-1368DR,8401,11754,15437,0.046,551
2019-08-06T09:23:18,42.805,6.029,CST-1368DR,8401,11754,15436,0.046,551
2019-08-06T09:26:20,42.805,6.029,CST-1368DR,8401,11755,15438,0.046,550
2019-08-06T09:29:21,42.805,6.029,CST-1368DR,8401,11753,15436,0.046,551
2019-08-06T09:32:23,42.805,6.029,CST-1368DR,8401,11753,15436,0.046,551
2019-08-06T09:35:24,42.805,6.029,CST-1368DR,8401,11752,15434,0.047,551
2019-08-06T09:38:26,42.805,6.029,CST-1368DR,8401,11754,15437,0.046,551
2019-08-06T09:41:28,42.805,6.029,CST-1368DR,8401,11754,15437,0.046,551
2019-08-06T09:44:29,42.805,6.029,CST-1368DR,8401,11753,15436,0.046,551
2019-08-06T09:47:31,42.805,6.029,CST-1368DR,8401,11753,15435,0.047,551
2019-08-06T09:50:33,42.805,6.029,CST-1368DR,8401,11755,15438,0.046,550
2019-08-06T09:53:34,42.805,6.029,CST-1368DR,8401,11754,15437,0.046,551
2019-08-06T09:56:36,42.805,6.029,CST-1368DR,8401,11749,15430,0.048,551
2019-08-06T09:59:38,42.805,6.029,CST-1368DR,8401,11751,15432,0.047,551
2019-08-06T10:02:39,42.805,6.029,CST-1368DR,8400,11752,15436,0.046,551
2019-08-06T10:05:41,42.805,6.029,CST-1368DR,8400,11754,15438,0.046,551
2019-08-06T10:08:42,42.805,6.029,CST-1368DR,8400,11754,15439,0.046,550
2019-08-06T10:11:44,42.805,6.029,CST-1368DR,8400,11753,15437,0.046,551
2019-08-06T10:14:46,42.805,6.029,CST-1368DR,8400,11752,15436,0.046,551
2019-08-06T10:17:47,42.805,6.029,CST-1368DR,8400,11753,15437,0.046,551
2019-08-06T10:20:49,42.805,6.029,CST-1368DR,8400,11754,15438,0.046,551
2019-08-06T10:23:51,42.805,6.029,CST-1368DR,8400,11754,15439,0.046,551
2019-08-06T10:26:52,42.805,6.029,CST-1368DR,8400,11754,15438,0.046,551
2019-08-06T10:29:54,42.805,6.029,CST-1368DR,8400,11753,15437,0.046,551
2019-08-06T10:32:56,42.805,6.029,CST-1368DR,8400,11753,15438,0.046,551
2019-08-06T10:35:57,42.805,6.029,CST-1368DR,8400,11754,15438,0.046,551
2019-08-06T10:38:59,42.805,6.029,CST-1368DR,8400,11752,15436,0.046,551
2019-08-06T10:42:00,42.805,6.029,CST-1368DR,8400,11751,15435,0.047,551
2019-08-06T10:45:02,42.805,6.029,CST-1368DR,8400,11753,15437,0.046,551
2019-08-06T10:48:04,42.805,6.029,CST-1368DR,8400,11752,15436,0.046,551
2019-08-06T10:51:05,42.805,6.029,CST-1368DR,8400,11753,15437,0.046,550
2019-08-06T10:54:07,42.805,6.029,CST-1368DR,8400,11750,15433,0.047,551
2019-08-06T10:57:09,42.805,6.029,CST-1368DR,8400,11752,15435,0.047,551
2019-08-06T11:00:10,42.805,6.029,CST-1368DR,8400,11752,15436,0.046,551
2019-08-06T11:03:12,42.805,6.029,CST-1368DR,8400,11753,15437,0.046,551
2019-08-06T11:06:14,42.805,6.029,CST-1368DR,8400,11753,15438,0.046,551
2019-08-06T11:09:15,42.805,6.029,CST-1368DR,8400,11752,15436,0.046,551
2019-08-06T11:12:17,42.805,6.029,CST-1368DR,8400,11752,15436,0.046,551
2019-08-06T11:15:19,42.805,6.029,CST-1368DR,8400,11754,15438,0.046,551
2019-08-06T11:18:21,42.805,6.029,CST-1368DR,8400,11753,15437,0.046,551
2019-08-06T11:21:23,42.805,6.029,CST-1368DR,8400,11750,15433,0.047,551
2019-08-06T11:24:24,42.805,6.029,CST-1368DR,8400,11752,15436,0.046,551
2019-08-06T11:27:26,42.805,6.029,CST-1368DR,8400,11753,15437,0.046,551
2019-08-06T11:30:28,42.805,6.029,CST-1368DR,8400,11752,15436,0.046,551
2019-08-06T11:33:30,42.805,6.029,CST-1368DR,8400,11753,15437,0.046,551
2019-08-06T11:36:31,42.805,6.029,CST-1368DR,8400,11753,15438,0.046,551
2019-08-06T11:39:33,42.805,6.029,CST-1368DR,8400,11753,15437,0.046,551
2019-08-06T11:42:35,42.805,6.029,CST-1368DR,8400,11753,15438,0.046,551
2019-08-06T11:45:37,42.805,6.029,CST-1368DR,8400,11752,15436,0.046,551
2019-08-06T11:48:39,42.805,6.029,CST-1368DR,8400,11750,15433,0.047,551
2019-08-06T11:51:41,42.805,6.029,CST-1368DR,8400,11752,15436,0.046,551
2019-08-06T11:54:42,42.805,6.029,CST-1368DR,8400,11753,15437,0.046,551
2019-08-06T11:57:44,42.805,6.029,CST-1368DR,8400,11753,15437,0.046,551
2019-08-06T12:00:46,42.805,6.029,CST-1368DR,8400,11751,15435,0.047,551
2019-08-06T12:03:48,42.805,6.029,CST-1368DR,8400,11752,15436,0.046,550
2019-08-06T12:06:50,42.805,6.029,CST-1368DR,8400,11754,15438,0.046,551
2019-08-06T12:09:51,42.805,6.029,CST-1368DR,8400,11754,15438,0.046,551
2019-08-06T12:12:53,42.805,6.029,CST-1368DR,8400,11750,15434,0.047,551
2019-08-06T12:15:55,42.805,6.029,CST-1368DR,8400,11753,15437,0.046,551
2019-08-06T12:18:57,42.805,6.029,CST-1368DR,8399,11752,15437,0.046,551
2019-08-06T12:21:59,42.805,6.029,CST-1368DR,8399,11753,15439,0.046,551
2019-08-06T12:25:00,42.805,6.029,CST-1368DR,8399,11753,15439,0.046,551
2019-08-06T12:28:02,42.805,6.029,CST-1368DR,8399,11753,15438,0.046,551
2019-08-06T12:31:04,42.805,6.029,CST-1368DR,8399,11753,15439,0.046,550
2019-08-06T12:34:06,42.805,6.029,CST-1368DR,8399,11753,15439,0.046,550
2019-08-06T12:37:08,42.805,6.029,CST-1368DR,8399,11754,15440,0.045,551
2019-08-06T12:40:09,42.805,6.029,CST-1368DR,8399,11753,15438,0.046,550
2019-08-06T12:43:11,42.805,6.029,CST-1368DR,8399,11753,15439,0.046,551
2019-08-06T12:46:13,42.805,6.029,CST-1368DR,8399,11754,15440,0.045,551
2019-08-06T12:49:15,42.805,6.029,CST-1368DR,8399,11752,15438,0.046,551
2019-08-06T12:52:17,42.805,6.029,CST-1368DR,8399,11753,15438,0.046,551
2019-08-06T12:55:19,42.805,6.029,CST-1368DR,8399,11752,15438,0.046,551
2019-08-06T12:58:20,42.805,6.029,CST-1368DR,8399,11753,15439,0.046,551
2019-08-06T13:01:22,42.805,6.029,CST-1368DR,8399,11753,15439,0.046,551
2019-08-06T13:04:24,42.805,6.029,CST-1368DR,8399,11753,15439,0.046,551
2019-08-06T13:07:26,42.805,6.029,CST-1368DR,8399,11753,15439,0.046,551
2019-08-06T13:10:28,42.805,6.029,CST-1368DR,8399,11752,15437,0.046,551
2019-08-06T13:13:29,42.805,6.029,CST-1368DR,8399,11753,15439,0.046,551
2019-08-06T13:16:31,42.805,6.029,CST-1368DR,8399,11750,15435,0.047,551
2019-08-06T13:19:33,42.805,6.029,CST-1368DR,8399,11753,15438,0.046,551
2019-08-06T13:22:35,42.805,6.029,CST-1368DR,8399,11750,15435,0.047,551
2019-08-06T13:25:36,42.805,6.029,CST-1368DR,8399,11753,15439,0.046,551
2019-08-06T13:28:38,42.805,6.029,CST-1368DR,8399,11752,15437,0.046,551
2019-08-06T13:31:40,42.805,6.029,CST-1368DR,8399,11750,15435,0.047,551
2019-08-06T13:34:42,42.805,6.029,CST-1368DR,8399,11753,15439,0.046,551
2019-08-06T13:37:44,42.805,6.029,CST-1368DR,8399,11752,15438,0.046,551
2019-08-06T13:40:46,42.805,6.029,CST-1368DR,8399,11753,15439,0.046,551
2019-08-06T13:43:47,42.805,6.029,CST-1368DR,8399,11751,15437,0.046,551
2019-08-06T13:46:49,42.805,6.029,CST-1368DR,8399,11753,15438,0.046,551
2019-08-06T13:49:51,42.805,6.029,CST-1368DR,8399,11752,15438,0.046,551
2019-08-06T13:52:53,42.805,6.029,CST-1368DR,8399,11752,15438,0.046,551
2019-08-06T13:55:55,42.805,6.029,CST-1368DR,8399,11752,15437,0.046,551
2019-08-06T13:58:57,42.805,6.029,CST-1368DR,8399,11752,15438,0.046,551
2019-08-06T14:01:59,42.805,6.029,CST-1368DR,8399,11751,15436,0.046,551
2019-08-06T14:05:00,42.805,6.029,CST-1368DR,8399,11752,15437,0.046,551
2019-08-06T14:08:02,42.805,6.029,CST-1368DR,8399,11752,15437,0.046,551
2019-08-06T14:11:04,42.805,6.029,CST-1368DR,8399,11751,15436,0.046,551
2019-08-06T14:14:06,42.805,6.029,CST-1368DR,8399,11751,15436,0.046,551
2019-08-06T14:17:08,42.805,6.029,CST-1368DR,8399,11751,15437,0.046,551
2019-08-06T14:20:09,42.805,6.029,CST-1368DR,8399,11751,15437,0.046,551
2019-08-06T14:23:11,42.805,6.029,CST-1368DR,8399,11750,15435,0.047,551
2019-08-06T14:26:13,42.805,6.029,CST-1368DR,8398,11752,15439,0.046,551
2019-08-06T14:29:15,42.805,6.029,CST-1368DR,8398,11751,15438,0.046,551
2019-08-06T14:32:17,42.805,6.029,CST-1368DR,8398,11752,15440,0.045,551
2019-08-06T14:35:19,42.805,6.029,CST-1368DR,8398,11752,15439,0.046,551
2019-08-06T14:38:20,42.805,6.029,CST-1368DR,8398,11749,15435,0.047,551
2019-08-06T14:41:22,42.805,6.029,CST-1368DR,8398,11751,15438,0.046,551
2019-08-06T14:44:24,42.805,6.029,CST-1368DR,8398,11751,15438,0.046,551
2019-08-06T14:47:26,42.805,6.029,CST-1368DR,8398,11750,15436,0.046,551
2019-08-06T14:50:28,42.805,6.029,CST-1368DR,8398,11751,15437,0.046,551
2019-08-06T14:53:30,42.805,6.029,CST-1368DR,8398,11750,15437,0.046,551
2019-08-06T14:56:32,42.805,6.029,CST-1368DR,8398,11751,15438,0.046,551
2019-08-06T14:59:33,42.805,6.029,CST-1368DR,8398,11751,15438,0.046,551
2019-08-06T15:02:35,42.805,6.029,CST-1368DR,8398,11752,15439,0.046,551
2019-08-06T15:05:37,42.805,6.029,CST-1368DR,8398,11751,15438,0.046,551
2019-08-06T15:08:39,42.805,6.029,CST-1368DR,8398,11752,15439,0.046,551
2019-08-06T15:11:41,42.805,6.029,CST-1368DR,8398,11750,15436,0.046,551
2019-08-06T15:14:43,42.805,6.029,CST-1368DR,8398,11751,15438,0.046,551
2019-08-06T15:17:44,42.805,6.029,CST-1368DR,8398,11752,15439,0.046,551
2019-08-06T15:20:46,42.805,6.029,CST-1368DR,8398,11752,15439,0.046,551
2019-08-06T15:23:48,42.805,6.029,CST-1368DR,8398,11752,15439,0.046,550
2019-08-06T15:26:51,42.805,6.029,CST-1368DR,8398,11752,15439,0.046,551
2019-08-06T15:29:52,42.805,6.029,CST-1368DR,8398,11751,15438,0.046,551
2019-08-06T15:32:54,42.805,6.029,CST-1368DR,8398,11749,15435,0.047,550
2019-08-06T15:35:56,42.805,6.029,CST-1368DR,8398,11752,15439,0.046,551
2019-08-06T15:38:58,42.805,6.029,CST-1368DR,8398,11750,15436,0.046,551
2019-08-06T15:42:00,42.805,6.029,CST-1368DR,8398,11752,15439,0.046,551
2019-08-06T15:45:02,42.805,6.029,CST-1368DR,8398,11749,15435,0.047,551
2019-08-06T15:48:04,42.805,6.029,CST-1368DR,8398,11751,15438,0.046,551
2019-08-06T15:51:06,42.805,6.029,CST-1368DR,8398,11751,15437,0.046,551
2019-08-06T15:54:07,42.805,6.029,CST-1368DR,8398,11751,15438,0.046,551
2019-08-06T15:57:09,42.805,6.029,CST-1368DR,8398,11752,15439,0.046,551
2019-08-06T16:00:11,42.805,6.029,CST-1368DR,8398,11751,15438,0.046,551
2019-08-06T16:03:13,42.805,6.029,CST-1368DR,8398,11751,15438,0.046,551
2019-08-06T16:06:15,42.805,6.029,CST-1368DR,8398,11752,15439,0.046,551
2019-08-06T16:09:17,42.805,6.029,CST-1368DR,8398,11751,15438,0.046,551
2019-08-06T16:12:19,42.805,6.029,CST-1368DR,8398,11752,15439,0.046,551
2019-08-06T16:15:21,42.805,6.029,CST-1368DR,8398,11752,15439,0.046,551
2019-08-06T16:18:23,42.805,6.029,CST-1368DR,8398,11750,15436,0.046,551
2019-08-06T16:21:25,42.805,6.029,CST-1368DR,8398,11750,15437,0.046,551
2019-08-06T16:24:26,42.805,6.029,CST-1368DR,8398,11751,15437,0.046,551
2019-08-06T16:27:28,42.805,6.029,CST-1368DR,8398,11749,15435,0.047,551
2019-08-06T16:30:30,42.805,6.029,CST-1368DR,8398,11748,15434,0.047,551
2019-08-06T16:33:32,42.805,6.029,CST-1368DR,8398,11750,15437,0.046,550
2019-08-06T16:36:34,42.805,6.029,CST-1368DR,8398,11750,15436,0.046,551
2019-08-06T16:39:36,42.805,6.029,CST-1368DR,8398,11750,15436,0.046,551